GW2440 Weather Reports


Display with metric or nautical units.
time (UTC)temp
F
wind
direction
speed
MPH
gust
MPH
rain 1hr
in
rain 24hr
in
rain mn
in
humidity
%
barometer
mb
20260505001841 72 64 2.0 3.0 0.00 0.00 0.00 71 1017.5
20260505001338 72 42 5.0 6.0 0.00 0.00 0.00 70 1017.5
20260505000835 72 65 1.0 3.0 0.00 0.00 0.00 71 1017.5
20260505000333 72 49 6.0 6.0 0.00 0.00 0.00 69 1017.9
20260504235829 73 81 5.0 6.0 0.00 0.00 0.00 69 1017.5
20260504235326 73 59 5.0 7.0 0.00 0.00 0.00 69 1017.5
20260504234823 73 50 5.0 8.0 0.00 0.00 0.00 68 1017.5
20260504234321 73 77 8.0 10.0 0.00 0.00 0.00 68 1017.5
20260504233817 73 53 7.0 9.0 0.00 0.00 0.00 67 1017.2
20260504233313 74 82 4.0 6.0 0.00 0.00 0.00 67 1017.2
20260504232810 74 57 7.0 9.0 0.00 0.00 0.00 66 1017.2
20260504232307 74 97 6.0 8.0 0.00 0.00 0.00 67 1017.5
20260504231804 74 61 3.0 5.0 0.00 0.00 0.00 67 1017.2
20260504231300 74 38 6.0 9.0 0.00 0.00 0.00 66 1017.2
20260504230756 74 54 7.0 8.0 0.00 0.00 0.00 66 1017.2
20260504230254 75 59 8.0 10.0 0.00 0.00 0.00 65 1017.2
20260504225753 75 94 5.0 7.0 0.00 0.00 0.00 65 1017.2
20260504225249 75 45 11.0 13.0 0.00 0.00 0.00 65 1017.2
20260504224746 75 52 10.0 11.0 0.00 0.00 0.00 65 1017.2
20260504224243 75 54 5.0 6.0 0.00 0.00 0.00 65 1017.2
20260504223740 75 59 8.0 11.0 0.00 0.00 0.00 64 1017.2
20260504223235 76 84 4.0 7.0 0.00 0.00 0.00 64 1017.2
20260504222732 76 52 3.0 3.0 0.00 0.00 0.00 63 1017.2
20260504222229 75 53 5.0 7.0 0.00 0.00 0.00 63 1017.2
20260504221726 76 37 7.0 11.0 0.00 0.00 0.00 63 1016.9
20260504221218 76 54 8.0 9.0 0.00 0.00 0.00 63 1017.2
20260504220714 76 84 7.0 9.0 0.00 0.00 0.00 62 1017.2
20260504220212 76 87 9.0 10.0 0.00 0.00 0.00 62 1017.2
20260504215708 76 52 9.0 10.0 0.00 0.00 0.00 63 1017.2
20260504215206 76 46 6.0 8.0 0.00 0.00 0.00 61 1017.2
20260504214701 76 52 7.0 9.0 0.00 0.00 0.00 62 1017.2
20260504214158 76 62 9.0 13.0 0.00 0.00 0.00 62 1017.2
20260504213655 77 57 6.0 8.0 0.00 0.00 0.00 61 1017.2
20260504213151 77 87 5.0 8.0 0.00 0.00 0.00 61 1016.9
20260504212648 77 35 9.0 11.0 0.00 0.00 0.00 59 1017.2
20260504212144 77 94 5.0 8.0 0.00 0.00 0.00 58 1016.9
20260504211642 77 70 7.0 9.0 0.00 0.00 0.00 59 1017.2
20260504211138 77 78 4.0 5.0 0.00 0.00 0.00 59 1017.2
20260504210636 77 136 5.0 9.0 0.00 0.00 0.00 59 1017.2
20260504210132 77 66 9.0 10.0 0.00 0.00 0.00 58 1017.2
20260504205630 77 78 5.0 6.0 0.00 0.00 0.00 59 1017.2
20260504205127 77 54 6.0 9.0 0.00 0.00 0.00 59 1017.2
20260504204626 77 88 4.0 6.0 0.00 0.00 0.00 59 1016.9
20260504204124 77 41 5.0 7.0 0.00 0.00 0.00 60 1017.2
20260504203622 78 77 8.0 10.0 0.00 0.00 0.00 59 1016.9
20260504203119 78 46 5.0 9.0 0.00 0.00 0.00 58 1017.2
20260504202620 78 151 6.0 10.0 0.00 0.00 0.00 56 1017.2
20260504202117 77 42 3.0 3.0 0.00 0.00 0.00 58 1017.2
20260504201614 76 89 6.0 8.0 0.00 0.00 0.00 59 1017.2
20260504201112 78 46 7.0 10.0 0.00 0.00 0.00 58 1017.2
20260504200609 77 56 8.0 9.0 0.00 0.00 0.00 58 1017.5
20260504200105 77 49 3.0 3.0 0.00 0.00 0.00 59 1017.5
20260504195601 77 51 5.0 7.0 0.00 0.00 0.00 58 1017.5
20260504195057 77 73 2.0 2.0 0.00 0.00 0.00 59 1017.5
20260504194554 78 54 11.0 14.0 0.00 0.00 0.00 57 1017.9
20260504194050 77 43 9.0 10.0 0.00 0.00 0.00 59 1017.9
20260504193546 77 70 8.0 10.0 0.00 0.00 0.00 60 1017.9
20260504193045 77 87 3.0 5.0 0.00 0.00 0.00 59 1017.9
20260504192543 78 57 3.0 6.0 0.00 0.00 0.00 58 1017.9
20260504192041 77 54 5.0 7.0 0.00 0.00 0.00 59 1017.9
20260504191538 77 70 3.0 5.0 0.00 0.00 0.00 61 1017.9
20260504191034 77 59 5.0 7.0 0.00 0.00 0.00 60 1018.2
20260504190531 77 38 7.0 10.0 0.00 0.00 0.00 60 1018.2
20260504190027 77 87 4.0 5.0 0.00 0.00 0.00 60 1018.2
20260504185524 77 54 9.0 10.0 0.00 0.00 0.00 60 1018.2
20260504185021 76 64 5.0 9.0 0.00 0.00 0.00 60 1018.2
20260504184516 77 42 8.0 9.0 0.00 0.00 0.00 59 1018.6
20260504184012 78 65 9.0 9.0 0.00 0.00 0.00 59 1018.2
20260504183509 78 58 5.0 9.0 0.00 0.00 0.00 57 1018.2
20260504183008 78 48 6.0 8.0 0.00 0.00 0.00 56 1018.6
20260504182503 78 87 7.0 9.0 0.00 0.00 0.00 57 1018.6
20260504182001 78 58 5.0 7.0 0.00 0.00 0.00 58 1018.9
20260504181458 78 71 3.0 5.0 0.00 0.00 0.00 56 1018.6
20260504180956 78 56 4.0 6.0 0.00 0.00 0.00 57 1018.6
20260504180455 78 38 2.0 3.0 0.00 0.00 0.00 57 1018.9
20260504175953 77 88 6.0 9.0 0.00 0.00 0.00 58 1018.6
20260504175450 77 47 7.0 9.0 0.00 0.00 0.00 58 1018.9
20260504174947 79 56 5.0 6.0 0.00 0.00 0.00 57 1018.9
20260504174445 77 48 7.0 9.0 0.00 0.00 0.00 58 1018.6
20260504173942 77 71 5.0 7.0 0.00 0.00 0.00 59 1018.6
20260504173438 77 30 3.0 5.0 0.00 0.00 0.00 59 1018.9
20260504172936 77 51 11.0 14.0 0.00 0.00 0.00 59 1018.9
20260504172431 79 31 7.0 8.0 0.00 0.00 0.00 57 1018.9
20260504171928 79 114 3.0 5.0 0.00 0.00 0.00 55 1018.9
20260504171426 78 69 8.0 9.0 0.00 0.00 0.00 59 1018.9
20260504170922 78 25 6.0 7.0 0.00 0.00 0.00 58 1018.9
20260504170419 78 61 9.0 13.0 0.00 0.00 0.00 59 1018.9
20260504160338 77 21 9.0 13.0 0.00 0.00 0.00 57 1019.6
20260504150802 76 1 5.0 6.0 0.00 0.00 0.00 53 1019.9
20260504150259 75 38 7.0 9.0 0.00 0.00 0.00 55 1019.6
20260504141229 74 22 5.0 8.0 0.00 0.00 0.00 58 1019.6
20260504140725 75 68 5.0 8.0 0.00 0.00 0.00 62 1019.6
20260504140221 75 26 9.0 11.0 0.00 0.00 0.00 60 1019.2
20260504130644 72 45 5.0 10.0 0.00 0.00 0.00 73 1019.2
20260504130140 72 78 5.0 7.0 0.00 0.00 0.00 74 1019.2
20260504120104 68 17 3.0 3.0 0.00 0.00 0.00 83 1018.9
20260504110531 61 99 0.0 0.0 0.00 0.00 0.00 97 1018.6
20260504100454 61 104 0.0 0.0 0.00 0.00 0.00 95 1017.9
20260504081847 63 101 0.0 0.0 0.00 0.00 0.00 90 1017.9
20260504081343 63 100 0.0 0.0 0.00 0.00 0.00 90 1017.9
20260504080839 63 108 0.0 0.0 0.00 0.00 0.00 90 1018.2
20260504080337 63 130 0.0 0.0 0.00 0.00 0.00 90 1017.9
20260504070304 65 34 2.0 2.0 0.00 0.00 0.00 86 1018.2
20260504060224 66 68 0.0 0.0 0.00 0.00 0.00 87 1018.2
20260504050652 67 20 0.0 0.0 0.00 0.00 0.00 87 1019.2
20260504050149 67 20 0.0 0.0 0.00 0.00 0.00 86 1018.9
20260504045646 68 30 0.0 0.0 0.00 0.00 0.00 85 1019.2
20260504045146 68 32 0.0 0.0 0.00 0.00 0.00 85 1019.6
20260504044644 67 56 0.0 1.0 0.00 0.00 0.00 86 1019.2
20260504044141 67 80 0.0 0.0 0.00 0.00 0.00 86 1019.2
20260504043638 68 80 0.0 0.0 0.00 0.00 0.00 86 1019.2
20260504043135 68 59 1.0 2.0 0.00 0.00 0.00 85 1019.2
20260504042632 68 60 1.0 2.0 0.00 0.00 0.00 85 1019.2
20260504042129 68 54 2.0 2.0 0.00 0.00 0.00 85 1019.2
20260504041625 67 101 1.0 1.0 0.00 0.00 0.00 84 1019.2
20260504041121 68 65 1.0 2.0 0.00 0.00 0.00 85 1019.2
20260504040618 68 56 0.0 0.0 0.00 0.00 0.00 84 1019.6
20260504040115 68 61 0.0 0.0 0.00 0.03 0.03 83 1019.2
20260504035612 68 58 0.0 0.0 0.00 0.03 0.03 83 1019.6
20260504035108 68 55 1.0 1.0 0.00 0.03 0.03 83 1019.6
20260504034606 68 70 1.0 2.0 0.00 0.03 0.03 82 1019.6
20260504034103 68 61 1.0 2.0 0.00 0.03 0.03 82 1019.6
20260504033601 68 61 2.0 2.0 0.00 0.03 0.03 82 1019.6
20260504033058 68 62 3.0 3.0 0.00 0.03 0.03 82 1019.6
20260504032555 68 37 3.0 3.0 0.00 0.03 0.03 81 1019.6
20260504032052 68 70 1.0 2.0 0.00 0.03 0.03 81 1019.6
20260504031548 68 56 2.0 2.0 0.00 0.03 0.03 82 1019.6
20260504031044 68 51 2.0 3.0 0.00 0.03 0.03 82 1019.6
20260504030542 68 57 1.0 1.0 0.00 0.03 0.03 82 1019.6
20260504030038 68 25 3.0 3.0 0.00 0.03 0.03 81 1019.6
20260504025535 68 69 1.0 1.0 0.00 0.03 0.03 81 1019.6
20260504025032 68 9 3.0 3.0 0.00 0.03 0.03 81 1019.9
20260504024529 68 46 1.0 1.0 0.00 0.03 0.03 81 1019.2
20260504024026 68 61 2.0 2.0 0.00 0.03 0.03 81 1019.6
20260504023523 68 60 3.0 5.0 0.00 0.03 0.03 81 1019.6
20260504023018 68 47 2.0 3.0 0.00 0.03 0.03 81 1019.6
20260504022514 68 50 2.0 3.0 0.00 0.03 0.03 80 1019.6
20260504022011 68 39 2.0 2.0 0.00 0.03 0.03 80 1019.2
20260504021509 68 17 3.0 3.0 0.00 0.03 0.03 80 1019.2
20260504021006 68 44 3.0 3.0 0.00 0.03 0.03 80 1019.2
20260504020502 68 74 2.0 3.0 0.00 0.03 0.03 79 1018.9
20260504015959 69 59 3.0 3.0 0.00 0.03 0.03 79 1019.2
20260504015455 69 28 3.0 3.0 0.00 0.03 0.03 79 1019.2
20260504014951 69 61 3.0 5.0 0.00 0.03 0.03 79 1019.2
20260504014447 69 66 4.0 5.0 0.00 0.03 0.03 78 1018.9
20260504013944 69 31 5.0 6.0 0.00 0.03 0.03 78 1019.2
20260504013443 69 41 6.0 8.0 0.00 0.03 0.03 78 1019.2
20260504012938 69 5 4.0 6.0 0.00 0.03 0.03 78 1018.9
20260504012437 69 62 6.0 7.0 0.00 0.03 0.03 78 1018.9
20260504011934 69 50 3.0 3.0 0.00 0.03 0.03 78 1019.2
20260504011430 69 40 3.0 3.0 0.00 0.03 0.03 79 1018.9
20260504010926 69 34 3.0 3.0 0.00 0.03 0.03 78 1018.9
20260504010422 69 350 3.0 5.0 0.00 0.03 0.03 79 1018.9
20260504005919 69 49 2.0 2.0 0.00 0.03 0.03 78 1018.9
20260504005415 69 56 3.0 3.0 0.00 0.03 0.03 78 1018.9
20260504004913 70 40 1.0 2.0 0.00 0.03 0.03 78 1018.9
20260504004411 70 55 1.0 2.0 0.00 0.03 0.03 78 1018.9
20260504003908 70 20 4.0 5.0 0.00 0.03 0.03 77 1018.9
20260504003404 70 45 3.0 3.0 0.00 0.03 0.03 78 1018.9
20260504002900 70 41 3.0 3.0 0.00 0.03 0.03 77 1018.9
20260504002358 70 71 5.0 6.0 0.00 0.03 0.03 77 1018.9